CZ-6A DEB, 60755

Orbit data source: Space-Track

CZ-6A DEB, 60755 is space debris in LEO originally from a launch on Tue, 06 Aug 2024 UTC launched from the Taiyaun Space Center, China (TSC). Debris objects in space refer to the collection of defunct objects orbiting the Earth. Examples of debris include non-operational satellites, rocket bodies, and fragments generated from explosions, collisions, or faulty payload assembly.

Loading next visibility...
Identifier
60755, 2024-140EE
Orbit
LEO
Country
Flag of CNCN / PRC
Related business
Manufacturer
SAST
Mission
Spacecraft
Bus & Motor
Unknown
Mass
Unknown
Launch date (UTC)
2024-08-06 (2 years ago)
Launch vehicle
Unknown
Launch site
Taiyaun Space Center, China (TSC)
Object type
Payload
Rocket body
Debris
Shape & HBR
Unknown shape, 0.1 m
Radar Cross Section
Medium (>0.1 m² and <1 m²)

Expand to show TLE details & history
Last TLE update: 16 hours ago

TLE from 16 hours ago
0 CZ-6A DEB
1 60755U 24140EE  26171.17743795  .00000912  00000-0  52874-3 0  9995
2 60755  88.7834 259.3191 0127495 214.2070 145.0851 14.04013110 93794
Epoch: 2026-06-20T04:15Z
TLE epoch observation values (Epoch: 2026-06-20T04:15:30.638Z)
Latitude
-0.00007°
Longitude
-72.95436°
Altitude
959.238 km
Speed
7.333 km/s
True Right ascension
17h 17m 16s
True Declination
0° 00' 00"
Sunlit
Object was in full shadow at epoch
Visualization orbit readout
Latitude
Unknown
Longitude
Unknown
Altitude
Unknown
Speed
Unknown
Apparent Right ascension
Unknown
Apparent Declination
Unknown
Sunlit
N/A
Visualization observer readout
Local Sidereal Time
07:22:40
Azimuth
Unknown
Elevation
Unknown
Doppler factor
Unknown
Orbital elements
Apogee altitude
969.405 km
Perigee altitude
784.408 km
Semi-major axis
7,255.043 km
Eccentricity
0.01275
Inclination
88.7834°
RAAN
259.3191°
Arg. of periapsis
214.207°
True anomaly
145.91049°
Mean anomaly
145.0851°
Eccentric anomaly
145.49887°
Mean motion
3.51223 °/min
Orbital period
102.5 mins
BSTAR
0.00052874
Loading maneuver chart data...
Computing Atmospheric mass density...
Loading historical data...
Loading historical data...
Loading historical data...
Loading historical data...
Loading historical data...
Loading historical data...
Loading historical data...

Documentation

Showing up to 5 results
|